Total_Precipitation_Accumulation
0.71 0.70 0.75 0.86 0.90 0.95 0.94 0.85 0.79 0.77 0.79 0.88 0.99 1.02 1.01 1.00 0.97 0.96 0.92 0.90 0.90 0.90 0.94 0.99 0.97 0.95 1.00 0.96 0.90 0.86 0.87 0.98 0.99 0.52 0.39 0.42 0.62 0.82 0.87 0.88 0.92 0.87 0.81
0.67 0.77 0.75 0.79 0.91 0.93 0.86 0.82 0.84 0.82 0.81 0.84 0.94 1.07 1.10 1.08 1.04 1.02 1.01 1.05 1.11 1.07 1.01 1.03 1.06 1.06 1.09 1.07 1.06 0.97 0.86 0.82 0.92 0.75 0.51 0.53 0.66 0.83 0.89 0.92 0.99 0.96 0.88
0.56 0.71 0.81 0.83 0.88 0.94 0.88 0.80 0.84 0.87 0.85 0.85 0.94 1.09 1.16 1.18 1.15 1.07 1.06 1.10 1.20 1.29 1.26 1.23 1.17 1.16 1.17 1.12 1.12 1.08 0.97 0.87 0.85 0.87 0.70 0.62 0.70 0.80 0.93 1.00 1.04 1.04 1.04
0.43 0.60 0.71 0.80 0.86 0.90 0.92 0.90 0.86 0.86 0.88 0.89 0.90 0.99 1.11 1.22 1.31 1.31 1.32 1.26 1.26 1.30 1.33 1.35 1.32 1.33 1.29 1.24 1.24 1.19 1.15 1.15 1.09 1.08 0.96 0.81 0.79 0.83 1.00 1.18 1.26 1.13 1.11
0.33 0.44 0.60 0.71 0.82 0.89 0.93 0.95 0.97 0.96 0.89 0.89 0.90 0.89 0.97 1.24 1.60 1.60 1.53 1.46 1.33 1.23 1.16 1.17 1.24 1.40 1.46 1.54 1.58 1.47 1.44 1.53 1.50 1.43 1.25 1.08 0.97 1.02 1.13 1.23 1.43 1.37 1.26
0.32 0.34 0.47 0.64 0.77 0.86 0.92 1.00 1.00 1.01 1.00 0.95 0.92 0.88 0.92 1.12 1.57 1.65 1.38 1.18 1.06 1.04 1.02 0.95 0.96 1.16 1.27 1.41 1.56 1.58 1.65 1.80 1.88 1.81 1.56 1.32 1.08 1.03 1.15 1.37 1.57 1.74 1.65
0.26 0.26 0.34 0.47 0.67 0.79 0.85 0.94 1.06 1.06 1.04 1.01 0.94 0.88 0.83 0.90 1.30 1.43 1.24 0.98 0.84 0.81 0.84 0.84 0.84 0.91 1.06 1.05 1.22 1.33 1.41 1.58 1.79 1.90 1.86 1.45 1.19 1.09 1.35 1.55 1.61 1.73 1.64
0.26 0.23 0.25 0.32 0.48 0.65 0.81 0.89 0.99 1.10 1.10 1.05 0.97 0.90 0.86 0.81 1.15 1.35 1.23 0.90 0.77 0.70 0.70 0.69 0.70 0.74 0.89 1.06 1.19 1.20 1.15 1.25 1.53 1.73 1.87 1.69 1.47 1.40 1.64 1.93 2.06 2.07 1.89
0.25 0.24 0.22 0.24 0.34 0.50 0.66 0.78 0.87 1.00 1.04 1.03 0.98 0.89 0.86 0.84 1.04 1.37 1.36 0.98 0.81 0.70 0.68 0.68 0.64 0.64 0.89 1.14 1.16 1.12 1.02 1.05 1.23 1.51 1.73 1.82 1.86 1.97 2.12 2.41 2.60 2.56 2.40
0.22 0.22 0.21 0.22 0.27 0.38 0.51 0.65 0.80 0.91 0.98 0.99 0.99 0.91 0.86 0.82 0.97 1.36 1.55 1.11 0.91 0.79 0.72 0.70 0.78 0.82 1.01 1.09 1.04 1.11 1.16 1.04 1.01 1.09 1.20 1.31 1.40 1.56 1.88 2.15 2.39 2.52 2.49
0.22 0.21 0.21 0.21 0.24 0.31 0.45 0.58 0.76 0.88 0.97 0.97 0.93 0.92 0.85 0.82 0.85 1.15 1.57 1.33 1.03 0.92 0.86 0.80 0.77 0.90 0.96 1.01 1.06 1.08 1.23 1.13 1.05 1.14 1.15 1.12 1.16 1.30 1.49 1.78 2.12 2.39 2.54
0.22 0.22 0.22 0.20 0.22 0.29 0.43 0.56 0.70 0.86 0.99 1.01 0.94 0.96 0.94 0.88 0.87 1.07 1.35 1.39 1.19 0.97 0.89 0.78 0.78 0.92 0.97 1.04 1.04 1.12 1.21 1.17 1.09 1.11 1.06 1.03 1.08 1.18 1.32 1.53 1.80 2.03 2.15
0.21 0.21 0.22 0.22 0.24 0.28 0.38 0.53 0.73 0.85 0.96 1.03 0.94 0.95 1.01 1.00 1.01 1.19 1.23 1.26 1.24 1.08 1.05 1.06 0.99 1.02 1.04 0.98 1.02 1.06 1.05 1.02 1.08 1.09 1.00 0.92 0.95 1.08 1.17 1.32 1.50 1.72 1.89
0.22 0.21 0.23 0.26 0.30 0.31 0.38 0.49 0.68 0.84 0.96 1.05 0.98 0.91 0.95 1.04 1.20 1.36 1.29 1.19 1.23 1.22 1.19 1.19 1.14 1.11 1.03 0.97 0.97 0.91 0.87 0.94 0.99 0.99 0.91 0.83 0.83 0.95 1.09 1.23 1.41 1.60 1.86
0.24 0.23 0.24 0.28 0.33 0.36 0.42 0.50 0.62 0.75 0.97 1.16 1.07 1.00 1.10 1.27 1.40 1.55 1.45 1.33 1.34 1.35 1.29 1.22 1.12 1.10 1.09 0.99 0.89 0.83 0.82 0.87 0.89 0.82 0.83 0.84 0.86 0.93 1.02 1.14 1.38 1.54 1.74
0.28 0.26 0.28 0.32 0.34 0.36 0.45 0.56 0.66 0.74 0.84 0.89 0.99 1.06 1.05 1.28 1.35 1.30 1.27 1.22 1.28 1.37 1.30 1.19 1.00 0.93 0.93 0.89 0.85 0.82 0.78 0.79 0.78 0.78 0.83 0.86 0.91 0.98 1.03 1.09 1.30 1.51 1.60
0.33 0.32 0.34 0.36 0.34 0.36 0.43 0.56 0.69 0.77 0.84 0.86 0.90 0.98 1.04 1.17 1.23 1.22 1.21 1.13 1.10 1.12 1.08 0.97 0.86 0.81 0.77 0.74 0.76 0.75 0.73 0.72 0.76 0.81 0.83 0.81 0.86 0.92 0.99 1.06 1.18 1.33 1.43
0.36 0.39 0.42 0.40 0.38 0.40 0.47 0.58 0.69 0.81 0.89 0.92 0.95 1.03 1.08 1.11 1.15 1.20 1.25 1.23 1.19 1.07 0.92 0.87 0.86 0.82 0.77 0.76 0.76 0.77 0.74 0.74 0.80 0.85 0.84 0.80 0.82 0.91 0.96 0.99 1.05 1.19 1.29
0.37 0.41 0.45 0.47 0.45 0.45 0.51 0.60 0.70 0.78 0.84 0.89 0.96 1.13 1.25 1.24 1.22 1.24 1.23 1.10 1.00 0.94 0.89 0.85 0.85 0.89 0.87 0.83 0.79 0.79 0.81 0.81 0.80 0.86 0.84 0.80 0.81 0.88 0.91 0.91 0.97 1.09 1.18
0.38 0.47 0.52 0.53 0.51 0.52 0.56 0.64 0.72 0.80 0.83 0.87 0.91 1.02 1.20 1.29 1.26 1.27 1.20 1.06 0.96 0.89 0.85 0.85 0.84 0.88 0.91 0.90 0.86 0.86 0.87 0.86 0.86 0.88 0.82 0.78 0.80 0.84 0.88 0.88 0.92 0.95 0.99
0.43 0.46 0.53 0.54 0.53 0.57 0.63 0.69 0.76 0.84 0.85 0.85 0.86 0.93 1.13 1.17 1.10 1.06 1.11 1.11 1.03 0.93 0.88 0.88 0.86 0.87 0.89 0.88 0.87 0.87 0.88 0.86 0.85 0.84 0.77 0.72 0.73 0.80 0.81 0.82 0.81 0.80 0.84
0.46 0.49 0.52 0.55 0.58 0.64 0.69 0.74 0.80 0.86 0.84 0.84 0.86 0.93 1.03 0.92 0.88 0.90 0.97 1.03 1.03 0.98 0.91 0.93 0.92 0.87 0.88 0.91 0.91 0.91 0.91 0.86 0.80 0.77 0.74 0.69 0.69 0.73 0.73 0.72 0.69 0.69 0.73
0.48 0.53 0.58 0.59 0.62 0.70 0.74 0.72 0.78 0.84 0.86 0.85 0.86 0.88 0.93 0.91 0.88 0.87 0.92 0.96 1.00 0.98 0.93 0.94 0.93 0.87 0.82 0.83 0.87 0.93 0.97 0.90 0.80 0.77 0.79 0.74 0.69 0.68 0.66 0.63 0.59 0.61 0.68
0.52 0.57 0.64 0.67 0.68 0.69 0.74 0.77 0.78 0.85 0.89 0.89 0.86 0.86 0.91 0.93 0.91 0.88 0.88 0.90 0.94 0.94 0.90 0.92 0.91 0.85 0.79 0.77 0.78 0.80 0.84 0.85 0.83 0.81 0.80 0.78 0.71 0.64 0.62 0.62 0.56 0.57 0.64
0.56 0.61 0.68 0.74 0.76 0.77 0.79 0.80 0.82 0.87 0.91 0.89 0.88 0.87 0.86 0.89 0.91 0.90 0.87 0.88 0.90 0.87 0.81 0.83 0.88 0.87 0.79 0.74 0.72 0.72 0.81 0.86 0.87 0.91 0.96 0.92 0.78 0.64 0.61 0.61 0.58 0.58 0.63
0.57 0.61 0.69 0.75 0.78 0.81 0.85 0.88 0.87 0.87 0.91 0.88 0.86 0.87 0.88 0.91 0.93 0.92 0.88 0.89 0.92 0.89 0.82 0.80 0.82 0.81 0.76 0.73 0.72 0.74 0.76 0.78 0.83 0.91 1.01 1.06 0.89 0.71 0.65 0.63 0.60 0.60 0.63